Location: Kapuskasing
(49.3803°N, 82.4001°W)
Time: 13:39:49
(UTC-05:00)

RS-44 - Pass Details

Date: 14 December 2025
Orbit: 1174 x 1511 km, 82.5° (Epoch: 21 January)

Event Time Altitude Azimuth Distance (km) Brightness Sun altitude
Exits shadow 01:45:22 13° 18° (NNE) 3,391 ? -59.4°
Drops below altitude 10° 01:46:04 10° 16° (NNE) 3,619 ? -59.3°
Sets 01:48:58 0° 13° (NNE) 4,570 ? -59.0°
